SCP
0 0 0 0 0 0 0 0 0 0 0 -0 0 -0 -0 -0 -0 -0 -0 0 0 0 0 0 -0 0 0 0 -0 -0 -0 0 -0 -0 -0 -0 -0 0 0 0 -0 0 -0
0 0 0 0 0 0 0 0 0 0 0 -0 -0 -0 0 0 0 0 -0 -0 0 0 0 0 0 0 0 0 0 -0 0 0 0 0 -0 -0 0 0 0 0 0 -0 -0
0 0 0 0 0 0 0 0 0 0 -0 -0 -0 0 0 0 0 0 0 0 0 0 0 0 0 0 0 0 0 0 -0 -0 0 -0 0 0 -0 -0 -0 0 0 -0 -0
0 0 0 0 0 0 0 0 0 -0 -0 -0 0 0 0 0 0 0 0 0 0 0 0 0 0 0 0 0 0 -0 -0 -0 0 -0 0 0 0 -0 -0 -0 0 -0 -0
0 0 0 0 0 0 0 0 0 -0 -0 0 0 0 0 0 0 0 0 0 0 0 0 0 0 0 0 0 -0 -0 -0 0 0 -0 -0 0 0 -0 -0 0 -0 -0 -0
0 0 0 0 0 0 0 0 0 -0 0 0 0 0 0 0 0 0 0 0 0 0 0 0 0 0 0 0 0 0 -0 -0 -0 -0 -0 -0 0 -0 -0 -0 0 -0 0
0 0 0 0 0 0 0 0 0 0 0 0 0 0 0 0 0 0 0 0 0 0 0 0 0 0 0 0 0 0 -0 -0 -0 -0 -0 -0 0 -0 0 -0 -0 -0 -0
0 0 0 0 0 0 0 0 -0 0 0 0 0 0 0 0 0 0 0 0 0 0 0 0 0 0 0 0 0 0 0 0 -0 0 0 0 0 -0 0 -0 -0 -0 -0
0 0 0 0 0 0 0 0 -0 0 0 0 0 0 0 0 0 0 0 0 0 0 0 0 0 0 0 0 0 0 0 0 -0 0 0 0 0 -0 -0 -0 -0 -0 -0
0 0 0 0 0 -0 -0 -0 0 -0 0 0 0 0 0 0 0 0 0 0 0 0 0 0 0 0 0 0 0 0 0 0 -0 -0 -0 -0 -0 -0 0 -0 -0 -0 -0
0 0 0 0 0 -0 -0 -0 0 -0 0 0 0 0 0 0 0 0 0 0 0 0 0 0 -0 -0 -0 -0 -0 -0 0 -0 -0 -0 0 0 -0 -0 -0 0 -0 -0 -0
0 0 0 0 0 -0 -0 -0 -0 0 0 0 0 0 0 0 0 0 0 0 0 0 0 -0 -0 -0 -0 0 0 0 -0 -0 -0 -0 -0 -0 -0 0 -0 -0 -0 0 -0
0 0 0 0 0 -0 -0 -0 -0 -0 0 0 0 0 0 0 0 0 0 0 0 0 0 -0 -0 -0 0 0 0 0 0 -0 -0 -0 -0 -0 -0 -0 -0 -0 -0 -0 -0
-0 0 0 0 -0 -0 -0 -0 -0 -0 0 0 0 -0 -0 0 0 0 0 0 0 0 0 0 0 0 0 0 0 -0 0 0 -0 -0 -0 -0 -0 -0 -0 -0 -0 -0 0
-0 0 0 0 -0 -0 -0 -0 -0 0 -0 0 -0 -0 -0 0 0 0 0 0 0 0 0 0 0 0 -0 0 0 0 0 0 -0 -0 -0 -0 -0 -0 0 0 -0 -0 -0
0 0 -0 0 -0 -0 -0 -0 -0 -0 -0 -0 -0 -0 -0 0 0 0 0 0 0 0 0 0 0 0 -0 -0 0 0 0 -0 -0 -0 -0 -0 -0 -0 -0 -0 0 -0 -0
0 0 -0 -0 -0 -0 -0 -0 -0 -0 -0 -0 -0 -0 -0 -0 0 0 0 0 0 0 0 0 0 0 0 0 0 0 0 -0 -0 -0 -0 -0 -0 -0 -0 0 -0 -0 0
-0 0 -0 -0 -0 -0 -0 -0 -0 -0 -0 -0 -0 -0 -0 0 -0 -0 0 0 0 0 0 0 0 0 0 0 0 0 0 -0 -0 -0 -0 -0 -0 -0 -0 0 0 -0 -0
-0 0 -0 -0 -0 -0 -0 -0 -0 -0 -0 -0 -0 -0 0 0 -0 -0 -0 0 0 0 0 0 0 0 0 0 0 0 0 0 0 -0 0 -0 -0 -0 -0 0 -0 0 0
-0 -0 -0 -0 -0 -0 -0 -0 -0 -0 -0 -0 -0 -0 0 0 -0 -0 -0 0 0 0 0 0 0 0 0 0 0 0 -0 0 -0 -0 -0 0 -0 -0 0 -0 -0 0 -0
-0 -0 -0 0 0 -0 -0 -0 -0 -0 -0 -0 0 0 0 0 -0 -0 -0 0 0 0 0 0 0 0 0 0 0 0 -0 -0 -0 -0 -0 -0 0 0 0 0 0 0 0
0 -0 -0 -0 0 -0 -0 -0 0 0 0 -0 -0 0 0 0 0 -0 -0 0 0 0 0 0 0 0 0 0 0 0 -0 0 -0 -0 -0 -0 -0 -0 0 0 0 0 0
0 0 -0 0 0 0 0 -0 -0 -0 0 -0 -0 -0 0 -0 0 -0 -0 0 0 0 0 0 0 0 0 0 0 0 0 -0 0 0 0 0 0 0 0 -0 0 0 0
-0 -0 -0 0 0 0 -0 -0 -0 -0 -0 0 0 -0 -0 -0 0 0 -0 0 -0 -0 0 0 0 0 0 0 0 0 0 0 0 0 -0 0 0 0 0 0 0 0 0
0 0 0 -0 -0 -0 -0 -0 -0 -0 0 -0 0 0 -0 -0 -0 0 0 -0 -0 -0 -0 0 0 0 0 0 0 0 0 0 0 0 0 0 0 0 0 0 0 0 0
0 -0 0 0 0 0 0 -0 -0 0 0 0 0 0 0 0 -0 -0 0 -0 -0 -0 -0 -0 0 0 0 0 0 0 0 0 0 0 0 0 0 0 0 0 0 0 0
Wind_Speed_500mb
47 63 56 58 67 62 51 43 40 41 42 37 31 29 27 25 24 23 22 22 20 18 15 17 16 16 14 13 15 19 15 11 10 12 14 16 17 18 17 20 24 19 19
60 62 57 58 54 49 46 45 43 44 41 34 31 29 26 25 24 23 23 22 20 19 17 15 15 14 12 12 14 15 19 18 17 20 20 22 21 17 18 19 27 22 22
60 61 53 51 50 48 48 47 47 42 36 33 30 27 25 24 23 22 23 21 20 19 17 14 13 12 12 13 11 8 10 17 14 18 19 18 17 18 19 22 24 22 22
60 57 52 49 50 52 54 50 44 39 36 33 28 24 25 25 23 22 22 23 20 18 16 15 15 14 10 9 11 14 10 11 11 14 14 14 15 17 19 21 26 21 19
60 56 52 50 52 54 50 45 41 38 36 31 27 24 25 25 25 24 24 22 19 17 17 16 15 14 12 8 7 10 9 10 10 10 16 20 17 18 18 23 23 20 18
57 54 55 53 54 52 47 43 39 36 33 30 27 26 26 26 25 24 23 21 17 17 18 18 18 19 18 16 14 11 8 12 12 10 12 15 18 17 22 22 21 21 19
57 54 57 55 54 50 46 41 38 34 31 29 25 24 26 25 24 23 21 20 17 19 20 21 25 26 25 23 21 14 7 15 10 12 10 14 14 16 20 20 19 19 18
56 49 54 56 52 49 44 41 38 34 29 27 24 23 25 25 23 22 19 18 18 19 21 22 26 25 26 25 29 28 21 19 9 9 11 13 16 17 16 13 16 17 17
52 50 51 56 52 47 43 41 38 31 27 23 22 20 20 20 19 18 17 18 18 20 21 22 24 24 24 26 24 25 25 19 17 8 7 12 14 14 10 9 12 15 14
48 51 52 53 52 48 43 41 37 28 23 20 18 17 15 13 15 14 15 15 17 16 15 16 21 20 22 23 22 20 22 18 22 16 7 7 10 10 9 9 10 11 11
49 54 51 53 54 50 46 42 35 28 21 17 15 15 14 15 9 10 11 16 16 11 11 15 20 20 20 24 23 27 18 13 12 16 13 5 8 9 8 11 8 10 10
55 55 51 53 56 52 47 43 37 30 25 20 16 13 12 9 7 7 10 13 12 8 6 7 12 17 17 14 17 17 18 5 4 9 14 12 5 2 6 9 10 11 9
59 56 55 53 53 52 50 44 38 33 27 23 19 15 13 9 9 6 9 9 12 7 7 8 11 12 12 12 10 15 26 19 13 10 7 7 7 2 1 8 9 11 10
61 59 56 53 51 50 48 44 39 34 29 26 23 20 14 12 8 5 11 5 11 8 7 3 6 7 7 11 8 19 15 7 12 14 5 2 3 3 2 5 9 11 11
62 60 58 55 52 49 46 44 40 35 31 28 28 25 17 13 10 9 9 10 11 8 9 2 6 11 12 13 4 7 13 11 9 8 3 2 2 4 3 6 12 11 14
59 60 58 57 53 51 48 45 39 34 31 31 32 27 19 17 12 9 10 8 11 9 10 9 4 12 14 13 4 8 10 12 12 15 7 6 4 4 7 5 10 15 11
60 58 58 55 52 53 50 45 41 36 33 33 33 27 21 17 13 9 8 7 9 14 15 11 8 10 10 6 2 5 7 12 10 16 15 9 3 7 9 4 7 13 10
58 60 56 55 54 52 51 47 42 38 35 35 35 32 24 19 15 14 11 9 11 13 13 10 9 12 10 3 7 3 4 9 4 5 10 10 8 7 13 12 7 6 8
61 57 56 58 57 53 51 47 44 40 38 37 37 36 29 26 24 21 17 12 12 12 15 14 11 11 8 6 10 9 2 4 8 10 7 9 7 8 6 12 12 11 4
62 57 52 56 57 55 52 50 50 45 43 44 41 39 30 30 25 23 23 18 13 11 11 8 8 8 7 7 6 13 7 3 8 10 11 12 13 6 4 2 6 7 8
66 65 61 57 58 59 62 61 60 55 50 50 48 40 35 34 32 29 27 23 14 12 12 12 10 6 11 2 10 12 6 3 7 10 10 8 12 2 4 8 6 6 3
74 72 68 65 59 63 63 62 58 55 52 54 50 42 36 34 32 29 27 25 18 17 16 16 11 7 9 9 13 11 6 3 7 7 7 7 11 17 13 8 6 3 3
74 78 77 72 68 69 65 60 58 55 58 58 58 51 43 39 35 32 29 26 23 20 19 18 16 13 10 12 14 9 5 7 7 14 10 9 9 10 14 18 17 11 8
81 76 76 77 76 74 71 69 66 64 62 61 60 54 50 42 38 34 30 26 26 23 20 21 17 17 14 11 20 21 17 10 7 6 19 15 10 6 6 7 8 11 11
80 81 78 80 83 80 75 74 72 68 62 54 55 57 53 51 48 42 36 33 31 26 22 22 19 16 16 14 19 20 17 19 18 11 10 13 23 17 10 3 3 3 3
79 83 85 84 86 88 86 82 80 74 69 63 57 54 51 54 55 54 51 43 38 33 28 24 22 19 15 15 19 22 20 12 11 12 12 12 14 19 23 18 13 12 10
Wind_Direction_500mb
134 140 134 137 139 143 143 144 143 141 140 136 131 134 128 119 111 103 98 99 106 119 121 127 128 124 110 93 97 92 81 97 106 117 124 117 106 111 121 132 118 122 129
140 145 138 140 140 141 142 142 142 141 140 137 140 133 123 116 106 103 101 99 105 108 110 115 117 117 104 103 109 85 64 69 79 104 117 123 111 105 116 119 127 132 133
145 145 142 142 143 142 143 143 144 143 141 143 138 127 121 114 108 102 101 104 102 103 105 104 102 111 104 90 86 81 75 59 94 108 110 119 117 99 114 117 135 135 127
148 146 144 142 143 141 141 143 146 145 144 141 132 123 119 115 109 102 99 101 102 101 98 98 105 110 120 98 75 60 70 78 79 114 116 125 117 111 115 116 126 130 138
150 148 147 145 147 148 145 147 146 145 145 137 127 119 117 114 103 101 98 102 101 97 98 101 101 108 107 98 78 73 60 94 77 108 115 123 125 119 118 117 125 125 127
155 150 151 149 152 152 151 148 148 148 141 136 123 111 119 113 106 102 99 98 98 98 100 89 81 83 90 86 81 90 71 101 85 84 126 120 124 122 121 111 117 118 118
156 153 154 154 157 156 155 151 151 145 141 133 124 111 116 113 108 101 99 100 96 90 90 85 82 78 76 74 67 61 106 136 97 83 103 125 122 120 118 119 117 115 117
159 155 158 160 160 161 157 153 150 142 138 136 130 115 121 117 110 102 102 103 103 99 98 86 79 75 75 68 67 66 91 88 91 96 94 118 128 126 111 129 127 114 113
163 158 161 166 167 166 162 158 151 145 135 136 133 128 124 113 107 101 103 109 108 109 98 84 73 68 76 71 69 68 63 55 51 87 104 124 136 131 131 137 143 134 129
165 167 168 172 173 172 170 167 162 158 145 141 136 139 128 118 102 97 105 123 121 115 103 79 61 78 78 65 54 70 58 50 46 58 99 125 144 140 134 138 141 144 142
170 174 176 178 181 180 178 178 176 177 169 159 155 145 138 121 111 105 115 136 137 130 100 85 70 73 65 58 60 47 47 37 45 50 56 117 123 137 166 165 158 165 152
177 179 182 183 186 186 186 188 187 190 188 184 179 168 149 142 130 115 127 141 153 155 130 75 62 50 49 48 49 32 15 11 48 64 47 49 107 133 135 163 182 169 158
181 183 186 187 188 190 194 195 195 197 196 195 194 188 163 148 163 173 142 131 159 158 142 101 75 39 26 14 31 25 26 70 76 47 20 22 49 94 177 194 192 191 187
186 189 190 191 193 194 198 201 201 203 203 201 200 196 180 164 151 167 170 159 168 171 172 125 13 354 357 350 359 10 33 53 30 11 342 253 30 62 256 206 194 201 206
192 196 197 198 199 200 200 204 203 205 207 204 203 197 183 184 171 160 147 173 183 170 141 280 332 340 319 331 314 38 42 24 3 349 43 153 93 30 339 202 200 203 205
197 201 202 204 205 206 207 206 204 205 207 206 203 200 191 183 178 169 182 198 197 205 233 269 310 318 352 341 124 48 39 28 35 26 104 83 74 38 13 190 200 203 203
203 204 205 206 208 210 210 209 208 206 208 205 201 196 185 181 189 201 214 236 240 247 247 253 283 335 340 324 158 20 16 13 33 48 72 66 56 47 48 66 189 196 197
204 205 207 209 210 208 208 208 208 207 205 205 202 197 194 197 213 230 249 268 268 265 269 279 281 332 332 262 264 263 8 16 47 32 50 77 70 92 59 61 79 190 218
206 207 209 211 212 209 207 207 207 209 212 208 206 206 213 226 233 241 255 260 269 266 283 287 284 324 331 304 298 225 165 67 43 75 72 77 61 88 78 57 58 54 48
211 209 210 212 213 210 209 209 209 214 214 213 211 212 225 226 232 241 249 252 261 279 292 256 287 323 326 335 122 150 144 91 60 75 97 74 57 79 84 31 59 30 18
214 212 210 211 212 209 209 211 213 213 213 213 214 219 227 233 236 243 244 251 258 284 288 274 291 313 336 184 144 153 157 129 116 99 98 67 42 39 275 289 300 319 359
215 214 213 212 210 209 210 209 214 213 221 220 223 228 229 229 231 241 239 246 261 277 291 279 266 289 327 192 188 187 192 214 194 163 120 100 64 68 68 70 89 144 163
215 216 216 213 211 209 213 213 216 218 225 224 225 228 228 228 238 238 239 243 252 265 284 278 259 262 280 222 204 181 204 231 210 229 208 162 127 89 77 64 70 86 91
218 218 218 218 216 216 218 219 221 221 224 226 229 232 232 233 237 241 242 240 245 254 268 278 268 258 263 251 224 229 245 244 230 243 235 229 208 165 130 102 80 81 82
217 220 219 220 220 220 218 221 225 227 230 234 234 236 235 238 239 242 242 247 244 249 255 271 273 270 263 265 229 233 247 246 249 242 259 235 232 227 221 234 248 192 133
223 224 221 222 224 224 224 225 229 230 231 233 236 236 236 238 240 241 243 248 244 242 249 264 269 264 259 258 243 235 240 243 244 251 256 259 238 234 234 242 257 262 251
Wind_Speed_850mb
47 63 56 58 67 62 51 43 40 41 42 37 31 29 27 25 24 23 22 22 20 18 15 17 16 16 14 13 15 19 15 11 10 12 14 16 17 18 17 20 24 19 19
60 62 57 58 54 49 46 45 43 44 41 34 31 29 26 25 24 23 23 22 20 19 17 15 15 14 12 12 14 15 19 18 17 20 20 22 21 17 18 19 27 22 22
60 61 53 51 50 48 48 47 47 42 36 33 30 27 25 24 23 22 23 21 20 19 17 14 13 12 12 13 11 8 10 17 14 18 19 18 17 18 19 22 24 22 22
60 57 52 49 50 52 54 50 44 39 36 33 28 24 25 25 23 22 22 23 20 18 16 15 15 14 10 9 11 14 10 11 11 14 14 14 15 17 19 21 26 21 19
60 56 52 50 52 54 50 45 41 38 36 31 27 24 25 25 25 24 24 22 19 17 17 16 15 14 12 8 7 10 9 10 10 10 16 20 17 18 18 23 23 20 18
57 54 55 53 54 52 47 43 39 36 33 30 27 26 26 26 25 24 23 21 17 17 18 18 18 19 18 16 14 11 8 12 12 10 12 15 18 17 22 22 21 21 19
57 54 57 55 54 50 46 41 38 34 31 29 25 24 26 25 24 23 21 20 17 19 20 21 25 26 25 23 21 14 7 15 10 12 10 14 14 16 20 20 19 19 18
56 49 54 56 52 49 44 41 38 34 29 27 24 23 25 25 23 22 19 18 18 19 21 22 26 25 26 25 29 28 21 19 9 9 11 13 16 17 16 13 16 17 17
52 50 51 56 52 47 43 41 38 31 27 23 22 20 20 20 19 18 17 18 18 20 21 22 24 24 24 26 24 25 25 19 17 8 7 12 14 14 10 9 12 15 14
48 51 52 53 52 48 43 41 37 28 23 20 18 17 15 13 15 14 15 15 17 16 15 16 21 20 22 23 22 20 22 18 22 16 7 7 10 10 9 9 10 11 11
49 54 51 53 54 50 46 42 35 28 21 17 15 15 14 15 9 10 11 16 16 11 11 15 20 20 20 24 23 27 18 13 12 16 13 5 8 9 8 11 8 10 10
55 55 51 53 56 52 47 43 37 30 25 20 16 13 12 9 7 7 10 13 12 8 6 7 12 17 17 14 17 17 18 5 4 9 14 12 5 2 6 9 10 11 9
59 56 55 53 53 52 50 44 38 33 27 23 19 15 13 9 9 6 9 9 12 7 7 8 11 12 12 12 10 15 26 19 13 10 7 7 7 2 1 8 9 11 10
61 59 56 53 51 50 48 44 39 34 29 26 23 20 14 12 8 5 11 5 11 8 7 3 6 7 7 11 8 19 15 7 12 14 5 2 3 3 2 5 9 11 11
62 60 58 55 52 49 46 44 40 35 31 28 28 25 17 13 10 9 9 10 11 8 9 2 6 11 12 13 4 7 13 11 9 8 3 2 2 4 3 6 12 11 14
59 60 58 57 53 51 48 45 39 34 31 31 32 27 19 17 12 9 10 8 11 9 10 9 4 12 14 13 4 8 10 12 12 15 7 6 4 4 7 5 10 15 11
60 58 58 55 52 53 50 45 41 36 33 33 33 27 21 17 13 9 8 7 9 14 15 11 8 10 10 6 2 5 7 12 10 16 15 9 3 7 9 4 7 13 10
58 60 56 55 54 52 51 47 42 38 35 35 35 32 24 19 15 14 11 9 11 13 13 10 9 12 10 3 7 3 4 9 4 5 10 10 8 7 13 12 7 6 8
61 57 56 58 57 53 51 47 44 40 38 37 37 36 29 26 24 21 17 12 12 12 15 14 11 11 8 6 10 9 2 4 8 10 7 9 7 8 6 12 12 11 4
62 57 52 56 57 55 52 50 50 45 43 44 41 39 30 30 25 23 23 18 13 11 11 8 8 8 7 7 6 13 7 3 8 10 11 12 13 6 4 2 6 7 8
66 65 61 57 58 59 62 61 60 55 50 50 48 40 35 34 32 29 27 23 14 12 12 12 10 6 11 2 10 12 6 3 7 10 10 8 12 2 4 8 6 6 3
74 72 68 65 59 63 63 62 58 55 52 54 50 42 36 34 32 29 27 25 18 17 16 16 11 7 9 9 13 11 6 3 7 7 7 7 11 17 13 8 6 3 3
74 78 77 72 68 69 65 60 58 55 58 58 58 51 43 39 35 32 29 26 23 20 19 18 16 13 10 12 14 9 5 7 7 14 10 9 9 10 14 18 17 11 8
81 76 76 77 76 74 71 69 66 64 62 61 60 54 50 42 38 34 30 26 26 23 20 21 17 17 14 11 20 21 17 10 7 6 19 15 10 6 6 7 8 11 11
80 81 78 80 83 80 75 74 72 68 62 54 55 57 53 51 48 42 36 33 31 26 22 22 19 16 16 14 19 20 17 19 18 11 10 13 23 17 10 3 3 3 3
79 83 85 84 86 88 86 82 80 74 69 63 57 54 51 54 55 54 51 43 38 33 28 24 22 19 15 15 19 22 20 12 11 12 12 12 14 19 23 18 13 12 10
Wind_Direction_850mb
134 140 134 137 139 143 143 144 143 141 140 136 131 134 128 119 111 103 98 99 106 119 121 127 128 124 110 93 97 92 81 97 106 117 124 117 106 111 121 132 118 122 129
140 145 138 140 140 141 142 142 142 141 140 137 140 133 123 116 106 103 101 99 105 108 110 115 117 117 104 103 109 85 64 69 79 104 117 123 111 105 116 119 127 132 133
145 145 142 142 143 142 143 143 144 143 141 143 138 127 121 114 108 102 101 104 102 103 105 104 102 111 104 90 86 81 75 59 94 108 110 119 117 99 114 117 135 135 127
148 146 144 142 143 141 141 143 146 145 144 141 132 123 119 115 109 102 99 101 102 101 98 98 105 110 120 98 75 60 70 78 79 114 116 125 117 111 115 116 126 130 138
150 148 147 145 147 148 145 147 146 145 145 137 127 119 117 114 103 101 98 102 101 97 98 101 101 108 107 98 78 73 60 94 77 108 115 123 125 119 118 117 125 125 127
155 150 151 149 152 152 151 148 148 148 141 136 123 111 119 113 106 102 99 98 98 98 100 89 81 83 90 86 81 90 71 101 85 84 126 120 124 122 121 111 117 118 118
156 153 154 154 157 156 155 151 151 145 141 133 124 111 116 113 108 101 99 100 96 90 90 85 82 78 76 74 67 61 106 136 97 83 103 125 122 120 118 119 117 115 117
159 155 158 160 160 161 157 153 150 142 138 136 130 115 121 117 110 102 102 103 103 99 98 86 79 75 75 68 67 66 91 88 91 96 94 118 128 126 111 129 127 114 113
163 158 161 166 167 166 162 158 151 145 135 136 133 128 124 113 107 101 103 109 108 109 98 84 73 68 76 71 69 68 63 55 51 87 104 124 136 131 131 137 143 134 129
165 167 168 172 173 172 170 167 162 158 145 141 136 139 128 118 102 97 105 123 121 115 103 79 61 78 78 65 54 70 58 50 46 58 99 125 144 140 134 138 141 144 142
170 174 176 178 181 180 178 178 176 177 169 159 155 145 138 121 111 105 115 136 137 130 100 85 70 73 65 58 60 47 47 37 45 50 56 117 123 137 166 165 158 165 152
177 179 182 183 186 186 186 188 187 190 188 184 179 168 149 142 130 115 127 141 153 155 130 75 62 50 49 48 49 32 15 11 48 64 47 49 107 133 135 163 182 169 158
181 183 186 187 188 190 194 195 195 197 196 195 194 188 163 148 163 173 142 131 159 158 142 101 75 39 26 14 31 25 26 70 76 47 20 22 49 94 177 194 192 191 187
186 189 190 191 193 194 198 201 201 203 203 201 200 196 180 164 151 167 170 159 168 171 172 125 13 354 357 350 359 10 33 53 30 11 342 253 30 62 256 206 194 201 206
192 196 197 198 199 200 200 204 203 205 207 204 203 197 183 184 171 160 147 173 183 170 141 280 332 340 319 331 314 38 42 24 3 349 43 153 93 30 339 202 200 203 205
197 201 202 204 205 206 207 206 204 205 207 206 203 200 191 183 178 169 182 198 197 205 233 269 310 318 352 341 124 48 39 28 35 26 104 83 74 38 13 190 200 203 203
203 204 205 206 208 210 210 209 208 206 208 205 201 196 185 181 189 201 214 236 240 247 247 253 283 335 340 324 158 20 16 13 33 48 72 66 56 47 48 66 189 196 197
204 205 207 209 210 208 208 208 208 207 205 205 202 197 194 197 213 230 249 268 268 265 269 279 281 332 332 262 264 263 8 16 47 32 50 77 70 92 59 61 79 190 218
206 207 209 211 212 209 207 207 207 209 212 208 206 206 213 226 233 241 255 260 269 266 283 287 284 324 331 304 298 225 165 67 43 75 72 77 61 88 78 57 58 54 48
211 209 210 212 213 210 209 209 209 214 214 213 211 212 225 226 232 241 249 252 261 279 292 256 287 323 326 335 122 150 144 91 60 75 97 74 57 79 84 31 59 30 18
214 212 210 211 212 209 209 211 213 213 213 213 214 219 227 233 236 243 244 251 258 284 288 274 291 313 336 184 144 153 157 129 116 99 98 67 42 39 275 289 300 319 359
215 214 213 212 210 209 210 209 214 213 221 220 223 228 229 229 231 241 239 246 261 277 291 279 266 289 327 192 188 187 192 214 194 163 120 100 64 68 68 70 89 144 163
215 216 216 213 211 209 213 213 216 218 225 224 225 228 228 228 238 238 239 243 252 265 284 278 259 262 280 222 204 181 204 231 210 229 208 162 127 89 77 64 70 86 91
218 218 218 218 216 216 218 219 221 221 224 226 229 232 232 233 237 241 242 240 245 254 268 278 268 258 263 251 224 229 245 244 230 243 235 229 208 165 130 102 80 81 82
217 220 219 220 220 220 218 221 225 227 230 234 234 236 235 238 239 242 242 247 244 249 255 271 273 270 263 265 229 233 247 246 249 242 259 235 232 227 221 234 248 192 133
223 224 221 222 224 224 224 225 229 230 231 233 236 236 236 238 240 241 243 248 244 242 249 264 269 264 259 258 243 235 240 243 244 251 256 259 238 234 234 242 257 262 251